User: anonymous
Location: Caltech
(34.1382°N, 118.1253°W)
Time: 09:15:50
(UTC-07:00)
Language:

Meteor 1-11 Rocket - Orbit

View from above orbital plane
View from above orbital plane
View from above satellite
View from above satellite

Ground track
Ground track

The orbit data is extracted from the following two-line orbital elements,

1 05918U 72022B   14273.56589454  .00000089  00000-0  46559-4 0  2655
2 05918 081.2392 204.1164 0057901 229.8564 235.7712 14.05719891178813
Epoch (UTC): 30 September 2014 13:34:53
Eccentricity: 0.0057901
inclination: 81.2392°
perigee height: 832 km
apogee height: 916 km
right ascension of ascending node: 204.1164°
argument of perigee: 229.8564°
revolutions per day: 14.05719891
mean anomaly at epoch: 235.7712°
orbit number at epoch: 17881

The dashed part of the orbit path shows where the satellite is in the earth's shadow,  

DLR